Weather History for LTBA - March, 2013

Change the Weather History Date:

Wednesday, March 20, 2013

  Actual Average Record
Temperature  
Mean Temperature 58 °F -  
Max Temperature 64 °F 56 °F 71 °F (2001)
Min Temperature 52 °F 43 °F 35 °F (2006)
Degree Days  
Heating Degree Days 7    
Growing Degree Days 8 (Base 50)    
Moisture  
Dew Point 45 °F    
Average Humidity 66    
Maximum Humidity 76    
Minimum Humidity 47    
Precipitation  
Precipitation 0.00 in - - ()
Sea Level Pressure  
Sea Level Pressure 29.93 in    
Wind  
Wind Speed 5 mph ()    
Max Wind Speed 12 mph    
Max Gust Speed -    
Visibility 6.0 miles    
Events      
Averages and records for this station are not official NWS values.
T = Trace of Precipitation, MM = Missing Value Source: Averaged Metar Reports

Daily Weather History Graph

Daily Weather History Graph

Search for Another Location

Airport or City:

Trip Planner

Search our weather history database for the weather conditions in past years. The results will help you decide how hot, cold, wet, or windy it might be!

Date:

Astronomy

Mar. 20, 2013 Rise Set
Actual Time 6:08 AM EET 6:16 PM EET
Civil Twilight 5:40 AM EET 6:44 PM EET
Nautical Twilight 5:08 AM EET 7:16 PM EET
Astronomical Twilight 4:36 AM EET 7:49 PM EET
Moon 11:32 AM EET (3/20) 1:35 AM EET (3/20)
Length of Visible Light 13h 03m
Length of Day
12h 08m
First Quarter, 57% of the Moon is Illuminated
Mar 20
First Quarter
Mar 27
Full
Apr 3
Last Quarter
Apr 10
New
Apr 18
First Quarter

Hourly Weather History & Observations

Time (EET) Temp. Dew Point Humidity Pressure Visibility Wind Dir Wind Speed Gust Speed Precip Events Conditions
12:20 AM 53.6 °F 44.6 °F 72% 29.83 in 6.2 mi WSW 4.6 mph - N/A   Scattered Clouds
12:50 AM 53.6 °F 44.6 °F 72% 29.83 in 6.2 mi WNW 4.6 mph - N/A   Mostly Cloudy
1:20 AM 55.4 °F 44.6 °F 67% 29.83 in 6.2 mi SW 11.5 mph - N/A   Scattered Clouds
1:50 AM 53.6 °F 44.6 °F 72% 29.86 in 6.2 mi WSW 6.9 mph - N/A   Mostly Cloudy
2:00 AM 54 °F 45 °F 62% 29.86 in 6 mi WSW 6.9 mph - -   Partly Cloudy
2:20 AM 53.6 °F 44.6 °F 72% 29.83 in 6.2 mi WSW 5.8 mph - N/A   Mostly Cloudy
2:50 AM 51.8 °F 44.6 °F 76% 29.83 in 6.2 mi WSW 4.6 mph - N/A   Mostly Cloudy
3:20 AM 53.6 °F 44.6 °F 72% 29.86 in 6.2 mi SW 9.2 mph - N/A   Mostly Cloudy
3:50 AM 53.6 °F 44.6 °F 72% 29.86 in 6.2 mi WSW 4.6 mph - N/A   Mostly Cloudy
4:20 AM 53.6 °F 44.6 °F 72% 29.86 in 6.2 mi North 3.5 mph - N/A   Mostly Cloudy
4:50 AM 53.6 °F 44.6 °F 72% 29.89 in 6.2 mi North 4.6 mph - N/A   Mostly Cloudy
5:20 AM 55.4 °F 44.6 °F 67% 29.89 in 6.2 mi Variable 2.3 mph - N/A   Mostly Cloudy
5:50 AM 53.6 °F 44.6 °F 72% 29.89 in 6.2 mi Variable 1.2 mph - N/A   Mostly Cloudy
6:20 AM 51.8 °F 44.6 °F 76% 29.89 in 6.2 mi North 4.6 mph - N/A   Mostly Cloudy
6:50 AM 51.8 °F 44.6 °F 76% 29.89 in 6.2 mi NNW 5.8 mph - N/A   Mostly Cloudy
7:20 AM 51.8 °F 44.6 °F 76% 29.92 in 6.2 mi NNW 8.1 mph - N/A   Mostly Cloudy
7:50 AM 51.8 °F 44.6 °F 76% 29.92 in 6.2 mi NNW 6.9 mph - N/A   Mostly Cloudy
8:00 AM 52 °F 45 °F 69% 29.94 in 6 mi NNW 6.9 mph - -   Mostly Cloudy
8:20 AM 53.6 °F 44.6 °F 72% 29.95 in 6.2 mi NNW 5.8 mph - N/A   Mostly Cloudy
8:50 AM 55.4 °F 44.6 °F 67% 29.95 in 6.2 mi Variable 1.2 mph - N/A   Mostly Cloudy
9:20 AM 57.2 °F 44.6 °F 63% 29.95 in 6.2 mi Variable 2.3 mph - N/A   Mostly Cloudy
9:50 AM 57.2 °F 44.6 °F 63% 29.95 in 6.2 mi WSW 3.5 mph - N/A   Mostly Cloudy
10:20 AM 57.2 °F 44.6 °F 63% 29.95 in 6.2 mi Variable 3.5 mph - N/A   Mostly Cloudy
10:50 AM 57.2 °F 44.6 °F 63% 29.98 in 6.2 mi SW 4.6 mph - N/A   Mostly Cloudy
11:20 AM 57.2 °F 44.6 °F 63% 29.98 in 6.2 mi SW 3.5 mph - N/A   Mostly Cloudy
11:50 AM 57.2 °F 46.4 °F 67% 29.98 in 6.2 mi WSW 4.6 mph - N/A   Mostly Cloudy
12:20 PM 59.0 °F 46.4 °F 63% 29.98 in 6.2 mi Variable 2.3 mph - N/A   Mostly Cloudy
12:50 PM 62.6 °F 46.4 °F 55% 29.95 in 3.7 mi Variable 4.6 mph - N/A   Mostly Cloudy
1:20 PM 62.6 °F 48.2 °F 59% 29.95 in 3.7 mi ESE 4.6 mph - N/A   Scattered Clouds
1:50 PM 60.8 °F 44.6 °F 55% 29.95 in 6.2 mi ESE 8.1 mph - N/A   Scattered Clouds
2:00 PM 61 °F 46 °F 47% 29.96 in 6 mi ESE 8.1 mph - -   Partly Cloudy
2:20 PM 60.8 °F 46.4 °F 59% 29.95 in - ESE 6.9 mph - N/A   Clear
2:50 PM 60.8 °F 48.2 °F 63% 29.95 in - SE 4.6 mph - N/A   Clear
3:20 PM 62.6 °F 46.4 °F 55% 29.95 in - South 3.5 mph - N/A   Clear
3:50 PM 62.6 °F 48.2 °F 59% 29.95 in - SSW 4.6 mph - N/A   Clear
4:20 PM 62.6 °F 46.4 °F 55% 29.95 in - Variable 2.3 mph - N/A   Clear
4:50 PM 57.2 °F 48.2 °F 72% 29.95 in - SSW 4.6 mph - N/A   Clear
5:20 PM 57.2 °F 48.2 °F 72% 29.95 in - SW 3.5 mph - N/A   Clear
5:50 PM 55.4 °F 46.4 °F 72% 29.95 in - WSW 3.5 mph - N/A   Clear
6:20 PM 53.6 °F 44.6 °F 72% 29.95 in - South 3.5 mph - N/A   Clear
6:50 PM 53.6 °F 44.6 °F 72% 29.95 in - South 2.3 mph - N/A   Clear
7:20 PM 55.4 °F 44.6 °F 67% 29.95 in - Variable 2.3 mph - N/A   Clear
7:50 PM 55.4 °F 44.6 °F 67% 29.95 in - Variable 2.3 mph - N/A   Clear
8:00 PM 55 °F 44 °F 55% 29.98 in 6 mi ESE 2.3 mph - -   Scattered Clouds
8:20 PM 55.4 °F 44.6 °F 67% 29.95 in - East 4.6 mph - N/A   Clear
8:50 PM 59.0 °F 44.6 °F 59% 29.95 in - East 5.8 mph - N/A   Clear
9:20 PM 59.0 °F 44.6 °F 59% 29.95 in - SE 5.8 mph - N/A   Clear
9:50 PM 59.0 °F 44.6 °F 59% 29.95 in - East 4.6 mph - N/A   Clear
10:20 PM 55.4 °F 42.8 °F 63% 29.95 in - East 4.6 mph - N/A   Clear
10:50 PM 55.4 °F 42.8 °F 63% 29.95 in - ENE 5.8 mph - N/A   Clear
11:20 PM 57.2 °F 42.8 °F 59% 29.95 in - ENE 3.5 mph - N/A   Clear
11:50 PM 57.2 °F 42.8 °F 59% 29.95 in - Variable 2.3 mph - N/A   Clear